Regional Weather Roundup
Issued by NWS Northern Indiana

Home | Current Version | Previous Version | Graphics & Text | Print | Product List | Glossary On
Versions: 1 2 3 4 5 6 7 8 9 10 11 12 13 14 15 16 17 18 19 20 21 22 23 24 25 26 27 28 29 30 31 32 33 34 35 36 37 38 39 40 41 42 43 44 45 46 47 48 49 50
000
ASUS43 KIWX 272100
RWRIWX

KIWX WEATHER ROUNDUP
NATIONAL WEATHER SERVICE NORTHERN INDIANA
500 PM EDT WED AUG 27 2014

NOTE: "FAIR" INDICATES FEW OR NO CLOUDS BELOW 12,000 FEET WITH NO
SIGNIFICANT WEATHER AND/OR OBSTRUCTIONS TO VISIBILITY.

* THESE STATIONS ARE NOT UNDER NWS QUALITY CONTROL. THEY ALSO MAY NOT
  REPORT WEATHER SUCH AS PRECIPITATION OR FOG.

INZ001>027-272200-
NORTHERN INDIANA

CITY           SKY/WX    TMP DP  RH WIND       PRES   REMARKS
GARY*          PTSUNNY   75  63  64 NE9       30.15R
VALPARAISO     SUNNY     77  63  61 N10       30.14R
KNOX*          MOSUNNY   79  64  60 N6        30.10S
SOUTH BEND     SUNNY     79  60  52 NW14      30.13R
ELKHART*       SUNNY     81  57  44 NW7       30.12S
GOSHEN         MOSUNNY   80  61  52 N8        30.10S
MONTICELLO*    MOSUNNY   80  70  71 CALM      30.09S
ANGOLA*        SUNNY     81  59  47 VRB6      30.10R
FORT WAYNE     PTSUNNY   81  63  54 W6        30.09S
PERU/GRISSOM   PTSUNNY   82  71  70 N6        30.09S

$$
INZ028>050-272200-
CENTRAL INDIANA

CITY           SKY/WX    TMP DP  RH WIND       PRES   REMARKS
LAFAYETTE      MOSUNNY   81  69  67 N9        30.08F
KOKOMO*        PTSUNNY   84  70  61 N10       30.08S
MUNCIE*        MOSUNNY   85  69  58 VRB3      30.07F
INDIANAPOLIS   PTSUNNY   88  72  58 NW10      30.06F

$$
MIZ043>046-050>051-056>058-064>065-071>073-077>080-272200-
SOUTHWEST LOWER MICHIGAN

CITY           SKY/WX    TMP DP  RH WIND       PRES   REMARKS
BATTLE CREEK   MOSUNNY   76  58  53 N10       30.13S
BENTON HARBOR  MOSUNNY   71  58  63 VRB5      30.14S
COLDWATER*     MOSUNNY   79  58  48 N6        30.11R
HILLSDALE*     SUNNY     79  59  49 N7        30.12R
HOLLAND        PTSUNNY   74  61  63 NW8       30.15S
GRAND RAPIDS   PTSUNNY   77  59  53 NW8       30.13S
KALAMAZOO      MOSUNNY   77  57  50 N12       30.12S
STURGIS*       MOSUNNY   79  61  53 N7        30.11R
THREE RIVERS*  FAIR      78  58  50 NW7       30.12R

$$
OHZ001>008-015>018-024>025-272200-
NORTHWEST OHIO

CITY           SKY/WX    TMP DP  RH WIND       PRES   REMARKS
DEFIANCE       MOSUNNY   84  64  50 N6        30.07F
FINDLAY        MOSUNNY   85  65  51 W8        30.05S
TOLEDO EXPRESS MOSUNNY   81  60  48 N6        30.07R
TOLEDO METCALF MOSUNNY   79  64  60 NE8       30.07F
LIMA           SUNNY     82  69  64 N8        30.07S

$$
&&



USA.gov is the U.S. government's official web portal to all federal, state and local government web resources and services.